Weather observations for the past three days for
Sawyer County Airport
Imperial (Metric)
Date Time (cdt) Wind (mph) Vis. (mi.) Weather Sky Cond. Temperature (ºF) Relative Humidity Wind Chill (°F) Heat Index (°F) Pressure Precipitation (in)
Air Dwpt 6 hour altimeter (in) sea level (mb) 1 hr 3 hr 6 hr
Max. Min.
19 22:53 Calm 10.00 Fair CLR 60.1 55.9 86% 30.09 1018.9
19 21:53 Calm 10.00 Fair CLR 62.1 57.9 86% 30.1 1019.0
19 20:53 S 3 10.00 Fair CLR 68 59 73% 30.08 1018.4
19 19:53 SW 6 10.00 Fair CLR 75 57 54% 78 30.08 1018.2
19 18:53 SW 7 10.00 A Few Clouds FEW075 77 55.9 80.1 73.9 48% 79 30.07 1018.2
19 17:53 SW 5 10.00 Fair CLR 77 55 47% 78 30.07 1018.4
19 16:53 Vrbl 7 10.00 Fair CLR 79 55.9 45% 80 30.08 1018.4
19 15:53 Vrbl 6 10.00 Fair CLR 78.1 54 43% 79 30.09 1018.7
19 14:53 W 5 10.00 Mostly Cloudy BKN065 77 55.9 48% 79 30.1 1019.1
19 13:53 SW 12 G 21 10.00 A Few Clouds FEW060 78.1 54 43% 79 30.11 1019.7
19 12:53 SW 9 10.00 Partly Cloudy FEW045 SCT060 75.9 55.9 77 52 50% 78 30.13 1020.1
19 11:53 SW 8 10.00 Partly Cloudy SCT055 75 55 50% 78 30.13 1020.3
19 10:53 SW 8 10.00 A Few Clouds FEW042 73.9 55.9 54% 30.14 1020.4
19 09:53 Vrbl 3 10.00 Fair CLR 71.1 57 61% 30.15 1020.9
19 08:53 Vrbl 5 10.00 A Few Clouds FEW060 66.9 57 71% 30.17 1021.5
19 07:53 Calm 10.00 Partly Cloudy SCT060 62.1 57 84% 30.17 1021.6
19 06:53 Calm 10.00 Fair CLR 52 50 52 46.9 93% 30.17 1021.7
19 05:53 Calm 10.00 Fair CLR 48 46 93% 30.16 1021.4
19 04:53 Calm 10.00 Fair CLR 48 46.9 96% 30.15 1021.1
19 03:53 Calm 10.00 Fair CLR 48.9 46.9 93% 30.15 1021.0
19 02:53 Calm 10.00 Fair CLR 50 48 93% 30.15 1021.0
19 01:53 Calm 10.00 Fair CLR 51.1 48.9 92% 30.15 1021.1
19 00:53 Calm 10.00 Fair CLR 52 51.1 73.9 51.1 97% 30.15 1021.1
18 23:53 Calm 10.00 Fair CLR 53.1 51.1 93% 30.15 1021.0
18 22:53 Calm 10.00 Fair CLR 55 52 90% 30.15 1021.1
18 21:53 Calm 10.00 Fair CLR 57.9 55 90% 30.16 1021.2
18 20:53 Calm 10.00 Fair CLR 64 55.9 75% 30.15 1021.0
18 19:53 SW 3 10.00 Fair CLR 72 52 50% 30.15 1021.0
18 18:53 Vrbl 3 10.00 A Few Clouds FEW055 73.9 51.1 75.9 72 45% 30.17 1021.7
18 17:53 SW 6 10.00 Fair CLR 73.9 52 46% 30.17 1022.0
18 16:53 Vrbl 5 10.00 Fair CLR 75 50 42% 78 30.18 1022.2
18 15:53 Vrbl 5 10.00 Fair CLR 75 48 39% 77 30.19 1022.3
18 14:53 Vrbl 3 10.00 A Few Clouds FEW055 75 50 42% 78 30.2 1022.7
18 13:53 Vrbl 3 10.00 Fair CLR 73 48 41% 30.21 1023.2
18 12:53 Vrbl 5 10.00 Fair CLR 72 48 72 46 43% 30.22 1023.4
18 11:53 N 3 10.00 Fair CLR 70 46.9 44% 30.23 1023.8
18 10:53 Calm 10.00 A Few Clouds FEW045 69.1 48 47% 30.23 1024.0
18 09:53 Calm 10.00 Fair CLR 68 51.1 55% 30.24 1024.3
18 08:53 Calm 10.00 Fair CLR 62.1 55 78% 30.25 1024.5
18 07:53 Calm 10.00 Fair CLR 54 52 93% 30.26 1024.8
18 06:53 Calm 10.00 Mostly Cloudy BKN001 46 45 46.9 41 96% 30.25 1024.6
18 05:53 Calm 9.00 Overcast OVC001 44.1 42.1 93% 30.24 1024.5
18 04:53 Calm 5.00 Fog/Mist CLR 43 42.1 97% 30.24 1024.4
18 03:53 Calm 10.00 Fair CLR 44.1 42.1 93% 30.21 1023.6
18 02:53 Calm 0.75 Fog/Mist VV002 44.1 43 96% 30.21 1023.3
18 01:53 Calm 10.00 Fair CLR 46 44.1 93% 30.21 1023.3
18 00:53 Calm 10.00 Fair CLR 46.9 45 68 46.9 93% 30.2 1023.1
17 23:53 Calm 10.00 Fair CLR 48.9 46.9 93% 30.2 1023.0
17 22:53 Calm 10.00 Fair CLR 50 48.9 96% 30.18 1022.4
17 21:53 Calm 10.00 Fair CLR 53.1 51.1 93% 30.17 1022.0
17 20:53 Calm 10.00 Fair CLR 59 53.1 81% 30.16 1021.6
17 19:53 Calm 10.00 Fair CLR 66.9 48 51% 30.16 1021.5
17 18:53 N 6 10.00 A Few Clouds FEW055 68 48 69.1 64.9 49% 30.16 1021.4
17 17:53 N 8 10.00 A Few Clouds FEW047 69.1 50 51% 30.15 1021.1
17 16:53 N 6 10.00 Mostly Cloudy BKN070 68 50 53% 30.16 1021.4
17 15:53 NW 7 10.00 Overcast OVC065 68 51.1 55% 30.15 1021.3
17 14:53 N 5 G 17 10.00 Overcast SCT044 OVC065 66.9 50 55% 30.15 1021.2
17 13:53 N 10 G 17 10.00 Overcast FEW039 OVC060 66 50 56% 30.15 1021.0
17 12:53 N 12 10.00 Overcast FEW040 OVC055 66 51.1 66 55 59% 30.14 1021.0
17 11:53 Vrbl 6 10.00 Overcast BKN041 OVC049 63 50 63% 30.14 1020.8
17 10:53 Vrbl 6 G 20 10.00 Mostly Cloudy BKN035 63 50 63% 30.13 1020.5
17 09:53 N 10 G 17 10.00 Mostly Cloudy BKN032 63 50 63% 30.12 1019.8
17 08:53 N 8 G 20 10.00 Partly Cloudy SCT032 60.1 48.9 67% 30.1 1019.4
17 07:53 N 10 G 18 10.00 Fair CLR 57 48.9 74% 30.08 1018.5
17 06:53 Vrbl 6 10.00 Fair CLR 55 50 55 48 83% 30.07 1018.0
17 05:53 N 6 10.00 Fair CLR 54 50 87% 30.03 1016.9
17 04:53 Calm 10.00 Fair CLR 48 46 93% 30.01 1016.5
17 03:53 S 3 10.00 Mostly Cloudy BKN075 50 48.9 96% 30 1015.9
17 02:53 Calm 10.00 Partly Cloudy SCT085 50 48 93% 29.99 1015.5
17 01:53 Calm 10.00 Partly Cloudy SCT085 50 48.9 96% 29.98 1015.3
17 00:53 Calm 10.00 A Few Clouds FEW090 52 51.1 72 52 97% 29.98 1015.0
16 23:53 Calm 10.00 Fair CLR 52 51.1 97% 29.96 1014.6
Date Time (cdt) Wind (mph) Vis. (mi.) Weather Sky Cond. Air Dwpt Max. Min. Relative Humidity Wind Chill (°F) Heat Index (°F) altimeter (in) sea level (mb) 1 hr 3 hr 6 hr
6 hour
Temperature (ºF) Pressure Precipitation (in)